星链-35063(STARLINK-35063)
导读
STARLINK-35063是SpaceX星链星座的卫星,于**2025年9月6日由美国发射**,星链计划旨在构建全球卫星互联网星座,为全球提供高速互联网接入服务。该卫星延续星链标准设计,服务于低轨卫星通信网络,推动全球覆盖能力建设,进一步拓展星链系统的服务范围与应用场景。
Basic Information
目录编号:
65528
目录名称:
STARLINK-35063
国际标识:
2025-200J
轨道中心:
EARTH
卫星名称:
星链-35063
卫星全名:
星链-35063(STARLINK-35063)
卫星状态:
在轨 (已飞行364 天)
发射日期:
2025-09-06 UTC
国别 :
美国
(US)
星等 :
--
Orbit Information
| 数据来源 | 国际轨道数据 |
| 星历时间: | 2026-09-05T12:16:58+0800 9小时前 查看轨道信息 |
| 半长轴: | 6843.656km |
| 偏心率: | 0.0002611 |
| 轨道倾角: | 97.285° |
| 近地点辐角 | 102.944° |
| 升交点赤经 | 314.796° |
| 平近点角 | 257.210° |
| 近地点: | 463.732km |
| 远地点: | 467.306km |
| 周期: | 93.906分钟 |
| 每日圈数: | 15.334534 |
Detailed Information
固有亮度:
5
最大亮度:
2.5
卫星平台:
Starlink V1.0
覆盖范围:
全球
运营商:
太空探索技术公司
运营商所在国:
美国
制造商(研发单位):
太空探索技术公司
制造商所在国:
美国
使用方式:
暂无
Satellite Introduction
Starlink 计划是 SpaceX 推出的全球卫星互联网项目,通过发射低轨道卫星,为全球尤其是偏远地区提供高速、低延迟的互联网服务。自 2019 年起,Starlink 已部署数千颗卫星,旨在缩小全球数字鸿沟,推动互联网普及。该项目还为军事、航空等行业提供通信支持,带来广泛经济效益。
2D Orbit Map
3D Orbit Map
Orbit Altitude Analysis Chart
Orbit Inclination Analysis Chart
Orbit Comprehensive Analysis Chart
View Comprehensive ChartConjunction Data List
| Event ID | Objects | TCA | Miss Dist (km) | Collision Risk Probability | Collision Risk Index (CRI) | Action |
|---|---|---|---|---|---|---|
| CDM_260906-165506-442306-552821 |
STARLINK-34467
(64423)
STARLINK-35063
(65528) | 2026-09-06T 16:55:26+0000 |
1.641 km
极远距离 | 2.319312E-6 低风险 | 0.42 | |
| CDM_260908-020005-373306-552821 |
STARLINK-4574
(53733)
STARLINK-35063
(65528) | 2026-09-08T 02:00:03+0000 |
2.184 km
极远距离 | 2.306977E-6 低风险 | 0.42 | |
| CDM_260907-160306-552806-863221 |
STARLINK-35063
(65528)
RAWHIDE-2
(68632) | 2026-09-07T 16:03:26+0000 |
2.145 km
极远距离 | 2.0749E-6 低风险 | 0.41 | |
| CDM_260905-094206-475606-552821 |
STARLINK-34371
(64756)
STARLINK-35063
(65528) | 2026-09-05T 09:42:21+0000 |
2.800 km
极远距离 | 1.46051E-6 低风险 | 0.38 | |
| CDM_260907-142505-377406-552821 |
STARLINK-4719
(53774)
STARLINK-35063
(65528) | 2026-09-07T 14:25:32+0000 |
2.848 km
极远距离 | 1.383589E-6 低风险 | 0.38 | |
| CDM_260906-220004-835506-552821 |
STARLINK-2635
(48355)
STARLINK-35063
(65528) | 2026-09-06T 22:00:40+0000 |
2.666 km
极远距离 | 1.295454E-6 低风险 | 0.37 | |
| CDM_260907-060905-266006-552821 |
STARLINK-4081
(52660)
STARLINK-35063
(65528) | 2026-09-07T 06:09:54+0000 |
2.731 km
极远距离 | 1.293231E-6 低风险 | 0.37 | |
| CDM_260903-002504-832606-552821 |
STARLINK-2498
(48326)
STARLINK-35063
(65528) | 2026-09-03T 00:25:45+0000 |
2.680 km
极远距离 | 1.063809E-6 低风险 | 0.36 | |
| CDM_260908-010305-301206-552821 |
STARLINK-4271
(53012)
STARLINK-35063
(65528) | 2026-09-08T 01:03:03+0000 |
2.715 km
极远距离 | 9.846578E-7 极低风险 | 0.35 |

